Regional Weather Roundup
Issued by NWS

Home | Current Version | Previous Version | Text Only | Print | Product List | Glossary Off
Versions: 1 2 3 4 5 6 7 8 9 10 11 12 13 14 15 16 17 18 19 20 21 22 23 24 25 26 27 28 29 30 31 32 33 34 35 36 37 38 39 40 41 42 43 44 45 46 47 48 49 50

000
ASUS43 KLOT 180312
RWRIL

ILLINOIS REGIONAL WEATHER ROUNDUP
NATIONAL WEATHER SERVICE CHICAGO/ROMEOVILLE IL
1000 PM CDT FRI APR 17 2015

NOTE: "FAIR" INDICATES FEW OR NO CLOUDS BELOW 12,000 FEET WITH NO
SIGNIFICANT WEATHER AND/OR OBSTRUCTIONS TO VISIBILITY.

* THESE STATIONS ARE NOT UNDER NWS QUALITY CONTROL. THEY ALSO MAY NOT
  REPORT WEATHER SUCH AS PRECIPITATION OR FOG.

ILZ001-002-007-009-015-016-024-180400-
NORTHWEST ILLINOIS

CITY           SKY/WX    TMP DP  RH WIND       PRES   REMARKS
MOLINE         PTCLDY    58  49  72 CALM      30.00S
STERLING*      MOCLDY    61  52  72 CALM      30.01S
SAVANNA*       CLOUDY    64  50  59 SE3       30.00F
$$

ILZ003-004-008-010-011-017-018-180400-
NORTH CENTRAL ILLINOIS

CITY           SKY/WX    TMP DP  RH WIND       PRES   REMARKS
ROCKFORD       PTCLDY    64  49  57 S5        30.03R
FREEPORT*      MOCLDY    62  48  59 SW5       30.03S
ROCHELLE*      CLOUDY    62  47  58 CALM      30.02S
DE KALB*       CLOUDY    65  47  51 W5        30.03R
PERU*          PTCLDY    66  46  48 SE3       30.02S
$$

ILZ005-006-012>014-019>023-180400-
NORTHEAST ILLINOIS

CITY           SKY/WX    TMP DP  RH WIND       PRES   REMARKS
CHICAGO-OHARE  PTCLDY    61  46  57 S5        30.01R
CHICAGO-MIDWAY PTCLDY    69  45  41 VRB3      30.01R
AURORA         CLEAR     58  48  69 CALM      30.02R
LANSING*       CLEAR     59  48  68 CALM      30.02R
JOLIET*        PTCLDY    60  51  72 CALM      30.02S
WAUKEGAN       CLEAR     48  43  82 CALM      30.01R HAZE
DUPAGE AIRPORT PTCLDY    58  51  78 CALM      30.01R
KANKAKEE*      CLEAR     59  51  73 S3        30.04R
WHEELING       CLOUDY    62  46  55 S3        30.02R
MORRIS*        MOCLDY    66  46  48 CALM      30.00S
ROMEOVILLE*    MOCLDY    65  46  50 S5        30.02R
NORTHERLY ISL    N/A     58  42  55 S2          N/A
$$

LMZ740>746-180400-
SOUTHERN LAKE MICHIGAN

STATION/POSITION SKY/WX   TEMP    WIND        PRES    VSBY  WAVE
                          AIR SEA DIR/SP/G                  HT/PER
                          (F)     (DEG/KT/KT) (MB)    (MI)  (FT/S)
HARRISON CRIB              58     170/  9/ 10   N/A
BURNHAM HARBOR             59     170/  2/  2   N/A
CALUMET HARBOR             61     100/  4/  5   N/A
BURNS HARBOR               69     130/  4/ 24 1016.6S
MICHIGAN CITY              70     100/  7/  8   N/A
MICHIGAN CITY 6N           58 47                N/A           0
$$

ILZ025>027-034>036-040-047-049-050-058-095>099-180400-
WEST-CENTRAL ILLINOIS

CITY           SKY/WX    TMP DP  RH WIND       PRES   REMARKS
QUINCY         CLEAR     67  52  58 SE6       30.01R
GALESBURG*     MOCLDY    63  53  68 CALM      30.01S
MACOMB*        PTCLDY    67  52  58 CALM      30.03S
JACKSONVILLE*  CLEAR     69  54  58 S3        30.02S
PITTSFIELD*    CLEAR     66  53  62 S5        30.03R
$$

ILZ028>032-037-038-041>044-048-051>054-059>061-180400-
CENTRAL ILLINOIS

CITY           SKY/WX    TMP DP  RH WIND       PRES   REMARKS
PONTIAC        CLEAR     59  47  64 CALM      30.03S
BLOOMINGTON    PTCLDY    66  52  60 S5        30.04S
DECATUR        CLEAR     64  52  64 S5        30.03S
PEORIA         CLEAR     68  52  56 CALM      30.01S
LACON*         PTCLDY    62  51  67 CALM      30.01S
LINCOLN*       CLEAR     65  51  61 CALM      30.01R
SPRINGFIELD    CLEAR     65  53  65 S5        30.02S
TAYLORVILLE    CLEAR     63  54  72 CALM      30.03S
$$

ILZ033-039-045-046-055>057-062-063-180400-
EAST-CENTRAL ILLINOIS

CITY           SKY/WX    TMP DP  RH WIND       PRES   REMARKS
CHAMPAIGN      CLEAR     60  50  69 SE6       30.04R
DANVILLE*      CLEAR     63  48  59 CALM      30.02R
RANTOUL*       CLEAR     64  51  62 S5        30.04S
MATTOON        CLEAR     63  54  72 S3        30.03S
PARIS*         CLEAR     60  54  78 CALM      30.05S
$$

ILZ079-100>102-180400-
SOUTHWEST ILLINOIS

CITY           SKY/WX    TMP DP  RH WIND       PRES   REMARKS
ALTON          PTCLDY    64  57  77 CALM      30.03
BELLEVILLE     CLOUDY    62  60  96 CALM      30.01R
CAHOKIA*       PTCLDY    66  58  75 SE3       30.02R
SPARTA*        CLEAR     64  57  79 CALM      30.04R
$$

ILZ064>066-069>071-074>076-080>082-084>086-088>090-092>094-180400-
SOUTH-CENTRAL ILLINOIS

CITY           SKY/WX    TMP DP  RH WIND       PRES   REMARKS
CARBONDALE     PTCLDY    64  59  83 CALM      30.02R
CAIRO*         CLEAR     64  63  96 CALM      30.02R
EFFINGHAM*     CLEAR     60  52  73 CALM      30.04F
MARION         PTCLDY    68  61  77 E3        30.04R
MT. VERNON     CLEAR     57  52  82 CALM      30.04S
CENTRALIA*     CLEAR     59  56  89 CALM      30.04R
SALEM*         CLEAR     63  56  80 E3        30.03S
METROPOLIS*    PTCLDY    65  62  89 CALM      30.02R
$$

ILZ067-068-072-073-078-083-087-091-180400-
SOUTHEAST ILLINOIS

CITY           SKY/WX    TMP DP  RH WIND       PRES   REMARKS
LAWRENCEVILLE  CLEAR     60  56  86 CALM      30.03S
FLORA*         CLEAR     62  56  81 CALM      30.03F
FAIRFIELD*     CLEAR     63  57  81 CALM      30.02F
HARRISBURG*    MOCLDY    66  60  81 CALM      30.04S
ROBINSON*      CLEAR     59  56  90 CALM      30.05R
CARMI*         CLEAR     61  55  82 CALM      30.02F HAZE
$$

ABBREVIATIONS USED IN REMARKS
   TC - TEMPERATURE IN CELSIUS
  WCI - WIND CHILL INDEX
   HX - HEAT INDEX
  VSB - VISIBILITY
$$



USA.gov is the U.S. government's official web portal to all federal, state and local government web resources and services.